When you browse on this site, cookies collect data to enhance your experience and personalize the content and advertising you see.
Visit our Privacy Policy to learn more. By continuing to use the site, you agree to this use of cookies and data.
  • en Belgique
  • Liste des pays
  • À 7 jours
  • Température de l'eau
  • Carte météo
  • Widgets météo
  • user-avatar
    Se connecter

    Météo par heure à Barcelona

    Ce jour, 5 Avril, Dimanche

    Heure Température Précipitation Vent Pression Humidité
    00:00 +28°C° 0 mm 3 m/s 757 mmHg 81%
    01:00 +28°C° 0 mm 2 m/s 757 mmHg 81%
    02:00 +27°C° 0 mm 1 m/s 756 mmHg 78%
    03:00 +27°C° 0 mm 1 m/s 756 mmHg 81%
    04:00 +27°C° 0 mm 1 m/s 756 mmHg 83%
    05:00 +26°C° 0 mm 1 m/s 756 mmHg 86%
    06:00 +27°C° 0 mm 1 m/s 757 mmHg 80%
    07:00 +29°C° 0 mm 1 m/s 757 mmHg 74%
    08:00 +30°C° 0 mm 2 m/s 758 mmHg 67%
    09:00 +34°C° 0 mm 2 m/s 758 mmHg 57%
    10:00 +37°C° 0 mm 2 m/s 758 mmHg 46%
    11:00 +40°C° 0 mm 2 m/s 759 mmHg 35%
    12:00 +40°C° 0 mm 3 m/s 758 mmHg 34%
    13:00 +42°C° 0 mm 3 m/s 757 mmHg 33%
    14:00 +42°C° 0 mm 3 m/s 756 mmHg 33%
    15:00 +39°C° 0 mm 3 m/s 755 mmHg 39%
    16:00 +37°C° 0 mm 3 m/s 755 mmHg 45%
    17:00 +35°C° 0 mm 3 m/s 755 mmHg 51%
    18:00 +34°C° 0 mm 4 m/s 755 mmHg 59%
    19:00 +32°C° 0 mm 4 m/s 756 mmHg 67%
    20:00 +29°C° 0 mm 4 m/s 757 mmHg 75%
    21:00 +29°C° 0 mm 4 m/s 757 mmHg 79%
    22:00 +28°C° 0 mm 4 m/s 758 mmHg 82%
    23:00 +28°C° 0 mm 3 m/s 758 mmHg 86%

    Demain, 6 Avril, Lundi

    Heure Température Précipitation Vent Pression Humidité
    00:00 +27°C° 0 mm 3 m/s 758 mmHg 86%
    01:00 +27°C° 0 mm 2 m/s 758 mmHg 87%
    02:00 +27°C° 0 mm 2 m/s 757 mmHg 88%
    03:00 +27°C° 0 mm 2 m/s 757 mmHg 87%
    04:00 +26°C° 0 mm 1 m/s 758 mmHg 85%
    05:00 +26°C° 0 mm 1 m/s 758 mmHg 84%
    06:00 +28°C° 0 mm 1 m/s 758 mmHg 77%
    07:00 +29°C° 0 mm 2 m/s 759 mmHg 70%
    08:00 +30°C° 0 mm 2 m/s 759 mmHg 63%
    09:00 +34°C° 0 mm 2 m/s 759 mmHg 53%
    10:00 +37°C° 0 mm 2 m/s 759 mmHg 44%
    11:00 +40°C° 0 mm 2 m/s 759 mmHg 35%
    12:00 +40°C° 0 mm 3 m/s 758 mmHg 36%
    13:00 +39°C° 0 mm 3 m/s 757 mmHg 38%
    14:00 +40°C° 0 mm 4 m/s 756 mmHg 39%
    15:00 +38°C° 0 mm 4 m/s 756 mmHg 42%
    16:00 +37°C° 0 mm 4 m/s 756 mmHg 46%
    17:00 +36°C° 0 mm 5 m/s 755 mmHg 49%
    18:00 +34°C° 0 mm 5 m/s 756 mmHg 59%
    19:00 +32°C° 0 mm 5 m/s 757 mmHg 69%
    20:00 +29°C° 0 mm 5 m/s 757 mmHg 78%
    21:00 +28°C° 0 mm 4 m/s 758 mmHg 80%
    22:00 +28°C° 0 mm 3 m/s 758 mmHg 81%
    23:00 +28°C° 0 mm 3 m/s 759 mmHg 82%

    Après-demain, 7 Avril, Mardi

    Heure Température Précipitation Vent Pression Humidité
    00:00 +28°C° 0 mm 2 m/s 759 mmHg 81%
    01:00 +27°C° 0 mm 1 m/s 758 mmHg 81%
    02:00 +27°C° 0 mm 1 m/s 758 mmHg 80%
    03:00 +27°C° 0 mm 1 m/s 758 mmHg 82%
    04:00 +26°C° 0 mm 1 m/s 758 mmHg 84%
    05:00 +26°C° 0 mm 1 m/s 758 mmHg 86%
    06:00 +27°C° 0 mm 1 m/s 758 mmHg 80%
    07:00 +29°C° 0 mm 1 m/s 759 mmHg 74%
    08:00 +30°C° 0 mm 1 m/s 759 mmHg 68%
    09:00 +32°C° 0 mm 1 m/s 759 mmHg 61%
    10:00 +35°C° 0 mm 2 m/s 760 mmHg 54%
    11:00 +37°C° 0 mm 2 m/s 760 mmHg 46%
    12:00 +37°C° 0 mm 2 m/s 759 mmHg 48%
    13:00 +36°C° 0 mm 3 m/s 758 mmHg 50%
    14:00 +36°C° 0 mm 4 m/s 757 mmHg 51%
    15:00 +35°C° 0 mm 4 m/s 757 mmHg 53%
    16:00 +34°C° 0 mm 4 m/s 756 mmHg 55%
    17:00 +34°C° 0 mm 4 m/s 756 mmHg 58%
    18:00 +33°C° 0 mm 5 m/s 756 mmHg 64%
    19:00 +30°C° 0 mm 5 m/s 757 mmHg 70%
    20:00 +29°C° 0 mm 5 m/s 757 mmHg 76%
    21:00 +29°C° 0 mm 5 m/s 758 mmHg 77%
    22:00 +29°C° 0 mm 4 m/s 758 mmHg 79%
    23:00 +28°C° 0 mm 3 m/s 759 mmHg 81%

    8 Avril, Mercredi

    Heure Température Précipitation Vent Pression Humidité
    00:00 +28°C° 0 mm 3 m/s 758 mmHg 82%
    01:00 +27°C° 0 mm 3 m/s 758 mmHg 84%
    02:00 +27°C° 0 mm 2 m/s 758 mmHg 86%
    03:00 +27°C° 0 mm 2 m/s 757 mmHg 87%
    04:00 +26°C° 0 mm 1 m/s 757 mmHg 87%
    05:00 +26°C° 0 mm 1 m/s 757 mmHg 88%
    06:00 +28°C° 0 mm 1 m/s 758 mmHg 80%
    07:00 +29°C° 0 mm 1 m/s 758 mmHg 71%
    08:00 +31°C° 0 mm 1 m/s 759 mmHg 62%
    09:00 +35°C° 0 mm 2 m/s 759 mmHg 54%
    10:00 +37°C° 0 mm 2 m/s 759 mmHg 45%
    11:00 +40°C° 0 mm 2 m/s 759 mmHg 36%
    12:00 +39°C° 0 mm 3 m/s 758 mmHg 39%
    13:00 +39°C° 0 mm 3 m/s 757 mmHg 42%
    14:00 +38°C° 0 mm 3 m/s 756 mmHg 45%
    15:00 +37°C° 0 mm 4 m/s 756 mmHg 47%
    16:00 +36°C° 0 mm 4 m/s 755 mmHg 50%
    17:00 +35°C° 0 mm 5 m/s 755 mmHg 52%
    18:00 +34°C° 0 mm 5 m/s 755 mmHg 60%
    19:00 +32°C° 0 mm 5 m/s 756 mmHg 67%
    20:00 +30°C° 0 mm 5 m/s 756 mmHg 75%
    21:00 +29°C° 0 mm 4 m/s 757 mmHg 77%
    22:00 +29°C° 0 mm 4 m/s 758 mmHg 79%
    23:00 +28°C° 0 mm 3 m/s 758 mmHg 81%

    9 Avril, Jeudi

    Heure Température Précipitation Vent Pression Humidité
    00:00 +28°C° 0 mm 3 m/s 758 mmHg 82%
    01:00 +28°C° 0 mm 3 m/s 757 mmHg 84%
    02:00 +27°C° 0 mm 3 m/s 757 mmHg 85%
    03:00 +27°C° 0 mm 2 m/s 757 mmHg 87%
    04:00 +26°C° 0 mm 2 m/s 757 mmHg 89%
    05:00 +26°C° 0 mm 1 m/s 757 mmHg 91%
    06:00 +27°C° 0 mm 2 m/s 758 mmHg 82%
    07:00 +29°C° 0 mm 2 m/s 758 mmHg 73%
    08:00 +30°C° 0 mm 2 m/s 758 mmHg 64%
    09:00 +35°C° 0 mm 2 m/s 758 mmHg 53%
    10:00 +38°C° 0 mm 2 m/s 758 mmHg 42%
    11:00 +41°C° 0 mm 2 m/s 758 mmHg 31%
    12:00 +40°C° 0 mm 3 m/s 757 mmHg 34%
    13:00 +40°C° 0 mm 3 m/s 756 mmHg 36%
    14:00 +40°C° 0 mm 4 m/s 756 mmHg 38%
    15:00 +38°C° 0 mm 4 m/s 755 mmHg 43%
    16:00 +36°C° 0 mm 4 m/s 755 mmHg 48%
    17:00 +35°C° 0 mm 4 m/s 755 mmHg 52%
    18:00 +33°C° 0 mm 4 m/s 755 mmHg 58%
    19:00 +32°C° 0 mm 4 m/s 756 mmHg 64%
    20:00 +30°C° 0 mm 5 m/s 756 mmHg 70%
    21:00 +29°C° 0 mm 4 m/s 757 mmHg 73%
    22:00 +29°C° 0 mm 3 m/s 757 mmHg 75%
    23:00 +28°C° 0 mm 2 m/s 758 mmHg 78%

    10 Avril, Vendredi

    Heure Température Précipitation Vent Pression Humidité
    00:00 +28°C° 0 mm 2 m/s 758 mmHg 78%
    01:00 +27°C° 0 mm 1 m/s 757 mmHg 78%
    02:00 +27°C° 0 mm 1 m/s 757 mmHg 78%
    03:00 +27°C° 0 mm 1 m/s 757 mmHg 79%
    04:00 +26°C° 0 mm 1 m/s 757 mmHg 80%
    05:00 +26°C° 0 mm 1 m/s 757 mmHg 81%
    06:00 +27°C° 0 mm 1 m/s 758 mmHg 76%
    07:00 +29°C° 0 mm 1 m/s 758 mmHg 70%
    08:00 +30°C° 0 mm 1 m/s 759 mmHg 64%
    09:00 +34°C° 0 mm 2 m/s 759 mmHg 54%
    10:00 +37°C° 0 mm 2 m/s 759 mmHg 44%
    11:00 +40°C° 0 mm 2 m/s 759 mmHg 34%
    12:00 +40°C° 0 mm 2 m/s 758 mmHg 35%
    13:00 +40°C° 0 mm 3 m/s 757 mmHg 35%
    14:00 +41°C° 0 mm 4 m/s 756 mmHg 35%
    15:00 +38°C° 0 mm 4 m/s 756 mmHg 39%
    16:00 +37°C° 0 mm 4 m/s 755 mmHg 43%
    17:00 +36°C° 0 mm 4 m/s 755 mmHg 46%
    18:00 +34°C° 0 mm 4 m/s 756 mmHg 54%
    19:00 +33°C° 0 mm 5 m/s 756 mmHg 61%
    20:00 +30°C° 0 mm 5 m/s 757 mmHg 69%
    21:00 +29°C° 0 mm 4 m/s 757 mmHg 70%
    22:00 +29°C° 0 mm 4 m/s 758 mmHg 72%
    23:00 +29°C° 0 mm 3 m/s 758 mmHg 74%
    Voir plus